DW0126 Weather Reports


Display with metric or nautical units.
time (UTC)temp
F
wind
direction
speed
MPH
gust
MPH
rain 1hr
in
rain 24hr
in
rain mn
in
humidity
%
barometer
mb
20260505093216 55 225 3.0 4.0 0.00 0.00 0.00 86 1013.2
20260505092216 55 225 2.0 3.0 0.00 0.00 0.00 86 1013.1
20260505091216 55 225 4.0 6.0 0.00 0.00 0.00 86 1013.1
20260505090216 55 225 3.0 5.0 0.00 0.00 0.00 86 1013.0
20260505085216 55 225 4.0 7.0 0.00 0.00 0.00 86 1013.0
20260505084236 55 203 4.0 8.0 0.00 0.00 0.00 86 1012.9
20260505083216 55 225 4.0 6.0 0.00 0.00 0.00 86 1012.9
20260505082216 55 225 5.0 10.0 0.00 0.00 0.00 86 1012.8
20260505081236 55 225 3.0 6.0 0.00 0.00 0.00 86 1012.9
20260505080216 55 203 2.0 3.0 0.00 0.00 0.00 86 1012.9
20260505075216 55 203 4.0 6.0 0.00 0.00 0.00 86 1012.8
20260505074216 55 225 3.0 5.0 0.00 0.00 0.00 87 1012.7
20260505073236 55 225 2.0 4.0 0.00 0.00 0.00 87 1012.5
20260505072256 55 180 3.0 5.0 0.00 0.00 0.00 88 1012.4
20260505071216 55 225 2.0 3.0 0.00 0.00 0.00 88 1012.2
20260505070236 54 248 3.0 5.0 0.00 0.00 0.00 88 1012.0
20260505065217 54 225 3.0 4.0 0.00 0.00 0.00 88 1012.0
20260505064217 54 225 3.0 6.0 0.00 0.00 0.00 88 1012.0
20260505063217 54 225 2.0 5.0 0.00 0.00 0.00 87 1011.8
20260505062217 54 180 1.0 3.0 0.00 0.00 0.00 87 1011.6
20260505061217 54 0.0 2.0 0.00 0.00 0.00 87 1011.4
20260505060217 54 248 3.0 4.0 0.00 0.00 0.00 86 1011.3
20260505055217 54 225 4.0 5.0 0.00 0.00 0.00 86 1011.3
20260505054217 55 248 4.0 7.0 0.00 0.00 0.00 86 1011.2
20260505053217 55 248 2.0 3.0 0.00 0.00 0.00 85 1011.3
20260505052217 55 225 2.0 4.0 0.00 0.00 0.00 85 1011.2
20260505051217 55 203 3.0 5.0 0.00 0.00 0.00 84 1011.1
20260505050217 55 225 2.0 4.0 0.00 0.00 0.00 84 1011.0
20260505041216 57 248 3.0 4.0 0.00 0.00 0.00 81 1010.6
20260505040237 57 225 3.0 4.0 0.00 0.00 0.00 80 1010.5
20260505035217 58 248 3.0 7.0 0.00 0.00 0.00 78 1010.4
20260505034217 59 225 4.0 8.0 0.00 0.00 0.00 76 1010.2
20260505033217 60 225 5.0 8.0 0.00 0.00 0.00 74 1010.2
20260505032217 61 225 4.0 8.0 0.00 0.00 0.00 72 1010.0
20260505031237 62 225 3.0 6.0 0.00 0.00 0.00 71 1009.9
20260505030217 62 225 5.0 8.0 0.00 0.00 0.00 69 1009.8
20260505025236 63 270 5.0 7.0 0.00 0.00 0.00 67 1009.6
20260505024217 64 225 5.0 8.0 0.00 0.00 0.00 65 1009.5
20260505023217 65 225 7.0 11.0 0.00 0.00 0.00 63 1009.4
20260505022237 67 225 7.0 11.0 0.00 0.00 0.00 61 1009.3
20260505021217 68 203 6.0 12.0 0.00 0.00 0.00 59 1009.3
20260505020216 68 225 6.0 11.0 0.00 0.00 0.00 59 1009.3
20260505015237 69 225 5.0 8.0 0.00 0.00 0.00 58 1009.2
20260505014217 69 225 8.0 12.0 0.00 0.00 0.00 57 1009.2
20260505013216 70 225 6.0 8.0 0.00 0.00 0.00 55 1009.2
20260505012216 71 225 3.0 5.0 0.00 0.00 0.00 56 1009.3
20260505011237 71 225 6.0 12.0 0.00 0.00 0.00 55 1009.3
20260505010216 72 225 8.0 15.0 0.00 0.00 0.00 54 1009.2
20260505005217 73 248 6.0 10.0 0.00 0.00 0.00 53 1009.3
20260505004257 74 248 5.0 8.0 0.00 0.00 0.00 52 1009.3
20260505003216 74 203 6.0 10.0 0.00 0.00 0.00 51 1009.2
20260505002216 75 203 7.0 9.0 0.00 0.00 0.00 49 1009.0
20260505001217 76 225 3.0 6.0 0.00 0.00 0.00 47 1009.1
20260505000218 76 203 5.0 9.0 0.00 0.00 0.00 47 1009.1
20260504235217 76 248 5.0 6.0 0.00 0.00 0.00 47 1009.1
20260504234217 77 248 5.0 6.0 0.00 0.00 0.00 46 1009.2
20260504233217 77 225 5.0 9.0 0.00 0.00 0.00 47 1009.2
20260504232216 77 225 7.0 11.0 0.00 0.00 0.00 47 1009.2
20260504231217 77 225 6.0 9.0 0.00 0.00 0.00 46 1009.2
20260504230216 77 248 5.0 9.0 0.00 0.00 0.00 47 1009.3
20260504225216 77 203 3.0 5.0 0.00 0.00 0.00 47 1009.4
20260504224217 77 225 5.0 7.0 0.00 0.00 0.00 49 1009.5
20260504223216 76 225 6.0 10.0 0.00 0.00 0.00 49 1009.4
20260504222216 76 225 3.0 6.0 0.00 0.00 0.00 49 1009.5
20260504221217 76 225 5.0 8.0 0.00 0.00 0.00 49 1009.6
20260504220216 76 248 6.0 10.0 0.00 0.00 0.00 49 1009.7
20260504215216 76 248 5.0 9.0 0.00 0.00 0.00 48 1009.8
20260504214217 75 248 6.0 9.0 0.00 0.00 0.00 48 1009.9
20260504213216 75 248 5.0 8.0 0.00 0.00 0.00 53 1009.9
20260504212217 75 248 5.0 8.0 0.00 0.00 0.00 54 1010.1
20260504211217 74 248 5.0 8.0 0.00 0.00 0.00 55 1010.1
20260504210217 74 248 6.0 9.0 0.00 0.00 0.00 57 1010.1
20260504205216 73 248 5.0 9.0 0.00 0.00 0.00 58 1010.3
20260504204217 73 248 6.0 9.0 0.00 0.00 0.00 59 1010.3
20260504203217 73 248 5.0 9.0 0.00 0.00 0.00 59 1010.2
20260504202217 73 248 5.0 8.0 0.00 0.00 0.00 59 1010.4
20260504201217 73 225 4.0 8.0 0.00 0.00 0.00 61 1010.4
20260504200216 73 248 5.0 8.0 0.00 0.00 0.00 61 1010.5
20260504195216 72 293 3.0 6.0 0.00 0.00 0.00 62 1010.5
20260504194217 71 225 4.0 6.0 0.00 0.00 0.00 63 1010.5
20260504193217 71 248 5.0 8.0 0.00 0.00 0.00 63 1010.5
20260504192217 70 270 5.0 9.0 0.00 0.00 0.00 63 1010.6
20260504191217 71 293 4.0 12.0 0.00 0.00 0.00 64 1010.8
20260504190216 70 225 4.0 8.0 0.00 0.00 0.00 65 1010.8
20260504185237 69 225 5.0 8.0 0.00 0.00 0.00 66 1010.8
20260504184217 69 248 6.0 9.0 0.00 0.00 0.00 65 1010.9
20260504183216 69 248 6.0 10.0 0.00 0.00 0.00 65 1011.0
20260504182237 69 270 4.0 7.0 0.00 0.00 0.00 63 1010.9
20260504181216 68 248 3.0 5.0 0.00 0.00 0.00 65 1011.0
20260504180216 67 225 3.0 5.0 0.00 0.00 0.00 67 1010.9
20260504175217 66 225 3.0 6.0 0.00 0.00 0.00 68 1011.0
20260504174217 65 270 3.0 6.0 0.00 0.00 0.00 70 1010.9
20260504173236 65 248 5.0 8.0 0.00 0.00 0.00 71 1010.8
20260504172216 64 270 4.0 9.0 0.00 0.00 0.00 72 1011.0
20260504171216 64 248 3.0 5.0 0.00 0.00 0.00 72 1011.0
20260504170216 63 225 4.0 8.0 0.00 0.00 0.00 73 1010.8
20260504160216 60 225 5.0 11.0 0.00 0.00 0.00 78 1010.6
20260504150217 57 225 4.0 7.0 0.00 0.00 0.00 85 1010.3
20260504141217 51 0.0 1.0 0.00 0.00 0.00 91 1010.0
20260504140217 50 0.0 0.0 0.00 0.00 0.00 91 1009.8
20260504130216 49 0.0 0.0 0.00 0.00 0.00 89 1009.3
20260504120216 50 0.0 0.0 0.00 0.00 0.00 88 1008.9
20260504110217 52 0.0 0.0 0.00 0.00 0.00 87 1008.6
20260504100216 53 113 1.0 2.0 0.00 0.00 0.00 85 1008.4